User: anonymous   Login
Location: Unspecified
(0.0000°N, 0.0000°E)
Time: 15:56:50
(UTC+02:00)
Language:

YAOGAN 3 - Orbit

View from above orbital plane
View from above orbital plane
View from above satellite
View from above satellite

Ground track
Ground track

The orbit data is extracted from the following two-line orbital elements,

1 32289U 07055A   17111.88617238 -.00000098 +00000-0 -58722-5 0  9993
2 32289 097.9993 113.9726 0001776 098.2032 261.9400 14.80801307510400
Epoch (UTC): 21 April 2017 21:16:05
Eccentricity: 0.0001776
inclination: 97.9993°
perigee height: 625 km
apogee height: 628 km
right ascension of ascending node: 113.9726°
argument of perigee: 98.2032°
revolutions per day: 14.80801307
mean anomaly at epoch: 261.9400°
orbit number at epoch: 51040

The dashed part of the orbit path shows where the satellite is in the earth's shadow,  

DLR